Volver al catálogo

FREGAT R/B

ActivoHEO
NORAD 44300·ROCKET BODY·🇷🇺 Russia

Lanzado May 27, 2019 desde Plesetsk Cosmodrome

Loading…

Próximos Pases (próximas 24 horas)

TLE

ActualizadoSource: Space-Track

Época: Sep 13, 2026, 22:50 UTC

1 44300U 19030B   26256.95187733  .00000019  00000-0  00000-0 0  9998
2 44300  64.3047 193.2307 0067976 135.3941 225.1517  2.09028613 55748

Sigue FREGAT R/B en tiempo real con AllMySat

Download on the App Store